Showing default

SECOR 1B, 729

Orbit data source: Space-Track

SECOR 1B, 729 is an American payload satellite in LEO that was launched on Sat, 11 Jan 1964 UTC via a THOR SLV-2A AGENA D launch vehicle from the Air Force Western Test Range (AFWTR). Payload-class satellites include a variety of spacecraft equipped with specific instruments for various scientific and technological missions. These include communications satellites like Starlink; space stations such as the ISS; scientific satellites like the Hubble; Earth observation satellites from companies like Planet Labs, Umbra, and HawkEye 360; GPS; miniature CubeSats for education and research; and military/defense satellites.

Loading next visibility...
Identifier
729, 1964-001C
Orbit
LEO
Country
Flag of USUS
Related business
Manufacturer
ITT
Mission
Spacecraft
Bus & Motor
SECOR, Unknown motor
Mass
18 kg wet, 18 kg dry
Launch date (UTC)
1964-01-11 (62 years ago)
Launch vehicle
THOR SLV-2A AGENA D
Launch site
Air Force Western Test Range (AFWTR)
Object type
Payload
Rocket body
Debris
Shape & HBR
Unknown
Radar Cross Section
Medium (>0.1 m² and <1 m²)

Expand to show TLE details & history
Last TLE update: 5 hours ago

TLE from 5 hours ago
0 SECOR 1B
1 00729U 64001C   26037.62908377  .00000029  00000-0  61273-4 0  9993
2 00729  69.8987 212.8877 0016711 248.6202 111.3119 13.95210839158497
Epoch: 2026-02-06T15:05Z
TLE epoch observation values (Epoch: 2026-02-06T15:05:52.837Z)
Latitude
-0.0001°
Longitude
-150.34671°
Altitude
917.176 km
Speed
7.391 km/s
True Right ascension
14h 11m 33s
True Declination
0° 00' 00"
Sunlit
Object was in daylight at epoch
Visualization orbit readout
Latitude
Unknown
Longitude
Unknown
Altitude
Unknown
Speed
Unknown
Apparent Right ascension
Unknown
Apparent Declination
Unknown
Sunlit
N/A
Visualization observer readout
Local Sidereal Time
22:00:07
Azimuth
Unknown
Elevation
Unknown
Doppler factor
Unknown
Orbital elements
Apogee altitude
920.657 km
Perigee altitude
896.304 km
Semi-major axis
7,286.618 km
Eccentricity
0.00167
Inclination
69.8987°
RAAN
212.8877°
Arg. of periapsis
248.6202°
True anomaly
111.49016°
Mean anomaly
111.3119°
Eccentric anomaly
111.40105°
Mean motion
3.48943 °/min
Orbital period
103.17 mins
BSTAR
0.000061273
Loading maneuver chart data...
Computing Atmospheric mass density...
Loading historical data...
Loading historical data...
Loading historical data...
Loading historical data...
Loading historical data...
Loading historical data...
Loading historical data...
Other satellites on launch #1 in the year 1964 (1964-01-11 UTC)

Documentation

Showing up to 5 results
|